BER4CG EPKT-ESGG

Flight info

Callsign BER4CG
Flight time 1h 37m
Altitude 38000
Route LUMVE L619 NUDRO DCT XIDNA DCT KOLOB DCT KD DCT NILEN L617 ARQUS
Aircraft A319/M-SDE3FGHIRWY/LB1

Departure

Time 2026-05-01 13:54
Airport Katowice Wojciech Korfanty International Airport (EPKT)

Arrival

Time 2026-05-01 15:31
Airport Göteborg Landvetter Airport (ESGG)
Time Latitude Longitude Altitude Speed Heading
2026-05-01 13:12 50.47182 19.07148 975 ft 0 kts 180°
2026-05-01 13:43 50.47189 19.07148 961 ft 2 kts 179°
2026-05-01 13:43 50.47205 19.07148 956 ft 2 kts 179°
2026-05-01 13:44 50.47222 19.07148 960 ft 2 kts 152°
2026-05-01 13:44 50.47232 19.07129 963 ft 2 kts 98°
2026-05-01 13:44 50.47235 19.07105 957 ft 0 kts 88°
2026-05-01 13:44 50.47235 19.07118 961 ft 0 kts 90°
2026-05-01 13:46 50.47235 19.07119 962 ft 0 kts 90°
2026-05-01 13:46 50.47235 19.07148 957 ft 5 kts 90°
2026-05-01 13:46 50.47235 19.07238 954 ft 11 kts 90°
2026-05-01 13:47 50.47235 19.07363 958 ft 12 kts 89°
2026-05-01 13:47 50.47236 19.07495 956 ft 12 kts 89°
2026-05-01 13:47 50.47237 19.07632 954 ft 13 kts 89°
2026-05-01 13:47 50.47237 19.07774 954 ft 13 kts 89°
2026-05-01 13:48 50.47238 19.07920 954 ft 14 kts 89°
2026-05-01 13:48 50.47238 19.08070 954 ft 14 kts 89°
2026-05-01 13:48 50.47239 19.08225 960 ft 14 kts 89°
2026-05-01 13:48 50.47240 19.08384 954 ft 15 kts 89°
2026-05-01 13:49 50.47235 19.08547 957 ft 15 kts 94°
2026-05-01 13:49 50.47232 19.08714 962 ft 15 kts 90°
2026-05-01 13:49 50.47232 19.08883 957 ft 16 kts 90°
2026-05-01 13:49 50.47232 19.09055 962 ft 16 kts 90°
2026-05-01 13:50 50.47232 19.09233 957 ft 16 kts 90°
2026-05-01 13:50 50.47260 19.09392 958 ft 15 kts 25°
2026-05-01 13:50 50.47365 19.09391 964 ft 16 kts 358°
2026-05-01 13:50 50.47475 19.09384 957 ft 16 kts 358°
2026-05-01 13:51 50.47567 19.09396 957 ft 10 kts 22°
2026-05-01 13:51 50.47595 19.09358 958 ft 5 kts 267°
2026-05-01 13:51 50.47595 19.09355 963 ft 0 kts 269°
2026-05-01 13:53 50.47605 19.07879 957 ft 135 kts 269°
2026-05-01 13:53 50.47615 19.06173 1185 ft 163 kts 272°
2026-05-01 13:54 50.47579 19.04404 1994 ft 163 kts 274°
2026-05-01 13:54 50.47577 19.02633 2739 ft 161 kts 276°
2026-05-01 13:54 50.47604 19.00899 3431 ft 161 kts 277°
2026-05-01 13:54 50.47659 18.99150 4103 ft 161 kts 277°
2026-05-01 13:55 50.47749 18.97321 4489 ft 178 kts 290°
2026-05-01 13:55 50.48388 18.95541 4818 ft 199 kts 305°
2026-05-01 13:55 50.49139 18.93549 5269 ft 224 kts 302°
2026-05-01 13:55 50.49931 18.91289 5734 ft 249 kts 301°
2026-05-01 13:56 50.50785 18.88808 6406 ft 264 kts 302°
2026-05-01 13:56 50.51669 18.86233 7250 ft 271 kts 302°
2026-05-01 13:56 50.52576 18.83601 8133 ft 276 kts 303°
2026-05-01 13:56 50.53505 18.80925 9024 ft 281 kts 304°
2026-05-01 13:57 50.54438 18.78245 9923 ft 286 kts 304°
2026-05-01 13:57 50.55089 18.76384 10474 ft 291 kts 304°
2026-05-01 13:57 50.56461 18.72512 10952 ft 321 kts 304°
2026-05-01 13:57 50.57568 18.69377 11565 ft 332 kts 304°
2026-05-01 13:58 50.58693 18.66164 12321 ft 338 kts 304°
2026-05-01 13:58 50.59828 18.62891 13096 ft 343 kts 304°
2026-05-01 13:58 50.60975 18.59570 13866 ft 348 kts 305°
2026-05-01 13:58 50.62141 18.56198 14574 ft 353 kts 305°
2026-05-01 13:59 50.63308 18.52829 15256 ft 357 kts 305°
2026-05-01 13:59 50.64505 18.49383 15942 ft 361 kts 305°
2026-05-01 13:59 50.65714 18.45896 16629 ft 364 kts 305°
2026-05-01 13:59 50.66933 18.42375 17311 ft 368 kts 305°
2026-05-01 14:00 50.68165 18.38812 18005 ft 372 kts 305°
2026-05-01 14:00 50.69409 18.35215 18672 ft 375 kts 305°
2026-05-01 14:00 50.70661 18.31585 19252 ft 379 kts 305°
2026-05-01 14:00 50.71928 18.27912 19838 ft 383 kts 305°
2026-05-01 14:01 50.73213 18.24211 20424 ft 385 kts 307°
2026-05-01 14:01 50.74733 18.20752 20992 ft 383 kts 314°
2026-05-01 14:01 50.76338 18.17438 21579 ft 387 kts 314°
2026-05-01 14:01 50.77978 18.14039 22157 ft 391 kts 314°
2026-05-01 14:02 50.79629 18.10602 22728 ft 394 kts 314°
2026-05-01 14:02 50.81293 18.07128 23266 ft 398 kts 313°
2026-05-01 14:02 50.82970 18.03617 23826 ft 402 kts 313°
2026-05-01 14:02 50.84663 18.00072 24295 ft 405 kts 313°
2026-05-01 14:03 50.86369 17.96498 24765 ft 408 kts 313°
2026-05-01 14:03 50.88085 17.92906 25234 ft 410 kts 313°
2026-05-01 14:03 50.89789 17.89334 25694 ft 413 kts 313°
2026-05-01 14:03 50.91520 17.85695 26153 ft 415 kts 313°
2026-05-01 14:04 50.93261 17.82034 26612 ft 417 kts 313°
2026-05-01 14:04 50.95011 17.78347 27055 ft 419 kts 313°
2026-05-01 14:04 50.96769 17.74642 27486 ft 422 kts 313°
2026-05-01 14:04 50.97942 17.72169 27777 ft 423 kts 313°
2026-05-01 14:05 51.00316 17.67153 28251 ft 426 kts 313°
2026-05-01 14:05 51.02091 17.63390 28326 ft 426 kts 313°
2026-05-01 14:05 51.05630 17.55849 28326 ft 425 kts 312°
2026-05-01 14:06 51.09142 17.48359 28333 ft 426 kts 313°
2026-05-01 14:06 51.12682 17.40808 28330 ft 426 kts 312°
2026-05-01 14:07 51.16616 17.33937 28303 ft 414 kts 327°
2026-05-01 14:08 51.24141 17.27951 28330 ft 403 kts 344°
2026-05-01 14:08 51.29382 17.24758 28331 ft 403 kts 343°
2026-05-01 14:09 51.34617 17.21551 28334 ft 403 kts 343°
2026-05-01 14:09 51.39860 17.18349 28334 ft 403 kts 344°
2026-05-01 14:10 51.45065 17.15159 28336 ft 403 kts 343°
2026-05-01 14:10 51.50304 17.11935 28336 ft 403 kts 343°
2026-05-01 14:11 51.55538 17.08700 28306 ft 403 kts 343°
2026-05-01 14:11 51.63414 17.03831 28336 ft 405 kts 343°
2026-05-01 14:12 51.68675 17.00575 28337 ft 405 kts 343°
2026-05-01 14:12 51.73896 16.97360 28334 ft 404 kts 343°
2026-05-01 14:13 51.78305 16.94681 28330 ft 404 kts 344°
2026-05-01 14:13 51.84428 16.90952 28331 ft 404 kts 343°
2026-05-01 14:14 51.89689 16.87730 28331 ft 404 kts 343°
2026-05-01 14:14 51.94954 16.84500 28328 ft 404 kts 343°
2026-05-01 14:15 52.00181 16.81280 28332 ft 405 kts 343°
2026-05-01 14:15 52.05439 16.78021 28325 ft 405 kts 343°
2026-05-01 14:16 52.10698 16.74752 28329 ft 404 kts 343°
2026-05-01 14:16 52.15954 16.71500 28328 ft 404 kts 343°
2026-05-01 14:17 52.21234 16.68222 28890 ft 409 kts 343°
2026-05-01 14:17 52.23864 16.66585 29331 ft 411 kts 343°
2026-05-01 14:17 52.26542 16.64908 29758 ft 413 kts 343°
2026-05-01 14:18 52.29235 16.63217 30176 ft 416 kts 343°
2026-05-01 14:18 52.31944 16.61520 30544 ft 418 kts 343°
2026-05-01 14:18 52.34668 16.59816 30886 ft 420 kts 343°
2026-05-01 14:18 52.36477 16.58685 31111 ft 421 kts 343°
2026-05-01 14:19 52.40148 16.56381 31518 ft 424 kts 342°
2026-05-01 14:19 52.42913 16.54638 31842 ft 426 kts 342°
2026-05-01 14:19 52.45646 16.52913 32182 ft 427 kts 342°
2026-05-01 14:19 52.48415 16.51165 32644 ft 425 kts 342°
2026-05-01 14:20 52.51169 16.49423 33107 ft 424 kts 342°
2026-05-01 14:20 52.56659 16.45945 34019 ft 421 kts 342°
2026-05-01 14:20 52.59390 16.44216 34463 ft 420 kts 342°
2026-05-01 14:21 52.62077 16.42511 34850 ft 419 kts 342°
2026-05-01 14:21 52.64827 16.40763 35242 ft 418 kts 342°
2026-05-01 14:21 52.67498 16.39063 35604 ft 417 kts 341°
2026-05-01 14:22 52.72897 16.35620 36300 ft 415 kts 341°
2026-05-01 14:22 52.75589 16.33903 36635 ft 415 kts 341°
2026-05-01 14:22 52.78277 16.32181 36957 ft 414 kts 341°
2026-05-01 14:22 52.80959 16.30454 37243 ft 414 kts 341°
2026-05-01 14:23 52.83646 16.28722 37518 ft 414 kts 340°
2026-05-01 14:23 52.86293 16.27018 37810 ft 414 kts 340°
2026-05-01 14:23 52.88975 16.25291 38100 ft 413 kts 341°
2026-05-01 14:23 52.91657 16.23563 38293 ft 414 kts 341°
2026-05-01 14:24 52.97010 16.20114 38328 ft 412 kts 340°
2026-05-01 14:24 53.02353 16.16652 38327 ft 412 kts 340°
2026-05-01 14:25 53.07689 16.13185 38328 ft 412 kts 340°
2026-05-01 14:25 53.12991 16.09732 38336 ft 412 kts 340°
2026-05-01 14:26 53.20998 16.04517 38349 ft 412 kts 341°
2026-05-01 14:27 53.26340 16.01013 38325 ft 413 kts 340°
2026-05-01 14:27 53.31656 15.97517 38337 ft 414 kts 340°
2026-05-01 14:28 53.39691 15.92213 38343 ft 414 kts 340°
2026-05-01 14:28 53.45050 15.88651 38352 ft 414 kts 340°
2026-05-01 14:29 53.50412 15.85085 38368 ft 414 kts 340°
2026-05-01 14:30 53.61090 15.78000 38374 ft 414 kts 340°
2026-05-01 14:31 53.69115 15.72626 38359 ft 414 kts 340°
2026-05-01 14:31 53.74474 15.69020 38366 ft 415 kts 340°
2026-05-01 14:32 53.79800 15.65433 38376 ft 415 kts 340°
2026-05-01 14:32 53.85160 15.61815 38380 ft 415 kts 340°
2026-05-01 14:33 53.90517 15.58185 38381 ft 414 kts 340°
2026-05-01 14:33 53.95838 15.54586 38383 ft 414 kts 340°
2026-05-01 14:34 54.01187 15.50937 38389 ft 414 kts 340°
2026-05-01 14:34 54.06538 15.47273 38391 ft 414 kts 340°
2026-05-01 14:35 54.11881 15.43616 38395 ft 414 kts 340°
2026-05-01 14:35 54.17217 15.39957 38393 ft 413 kts 339°
2026-05-01 14:36 54.22509 15.36308 38385 ft 413 kts 339°
2026-05-01 14:36 54.27830 15.32631 38384 ft 413 kts 339°
2026-05-01 14:37 54.32709 15.29255 38390 ft 413 kts 339°
2026-05-01 14:37 54.36838 15.26395 38388 ft 413 kts 339°
2026-05-01 14:38 54.39371 15.24638 38383 ft 413 kts 339°
2026-05-01 14:38 54.41996 15.22816 38375 ft 413 kts 339°
2026-05-01 14:39 54.44243 15.21251 38379 ft 413 kts 339°
2026-05-01 14:39 54.46332 15.19790 38378 ft 413 kts 339°
2026-05-01 14:40 54.48673 15.18148 38378 ft 413 kts 339°
2026-05-01 14:40 54.52599 15.15396 38354 ft 413 kts 339°
2026-05-01 14:41 54.54831 15.13831 38351 ft 414 kts 339°
2026-05-01 14:41 54.57783 15.11757 38349 ft 414 kts 339°
2026-05-01 14:42 54.62265 15.08607 38347 ft 415 kts 339°
2026-05-01 14:42 54.66876 15.05363 38345 ft 416 kts 339°
2026-05-01 14:43 54.69354 15.03616 38349 ft 416 kts 339°
2026-05-01 14:43 54.72339 15.01504 38351 ft 416 kts 339°
2026-05-01 14:44 54.77696 14.97695 38348 ft 416 kts 339°
2026-05-01 14:44 54.85671 14.91878 38359 ft 417 kts 336°
2026-05-01 14:45 54.93542 14.85441 38350 ft 417 kts 335°
2026-05-01 14:46 54.98783 14.81123 38350 ft 417 kts 335°
2026-05-01 14:46 55.06643 14.74753 38353 ft 417 kts 336°
2026-05-01 14:47 55.11911 14.70480 38359 ft 417 kts 336°
2026-05-01 14:48 55.19796 14.64040 38350 ft 417 kts 336°
2026-05-01 14:48 55.27640 14.57597 38342 ft 417 kts 335°
2026-05-01 14:49 55.38147 14.48929 38324 ft 417 kts 335°
2026-05-01 14:50 55.48618 14.40221 38318 ft 418 kts 335°
2026-05-01 14:51 55.56517 14.33627 38330 ft 419 kts 335°
2026-05-01 14:52 55.64426 14.27012 38326 ft 419 kts 335°
2026-05-01 14:53 55.72296 14.20390 38334 ft 419 kts 335°
2026-05-01 14:53 55.77565 14.15949 38330 ft 419 kts 334°
2026-05-01 14:54 55.82821 14.11482 38338 ft 418 kts 334°
2026-05-01 14:54 55.88061 14.07011 38344 ft 417 kts 334°
2026-05-01 14:55 55.93250 14.02549 38337 ft 417 kts 334°
2026-05-01 14:55 55.98473 13.98041 38326 ft 417 kts 334°
2026-05-01 14:56 56.03696 13.93526 38344 ft 417 kts 334°
2026-05-01 14:56 56.06311 13.91257 38095 ft 418 kts 334°
2026-05-01 14:56 56.08916 13.88987 37814 ft 417 kts 333°
2026-05-01 14:56 56.11526 13.86706 37540 ft 418 kts 333°
2026-05-01 14:57 56.14109 13.84447 37275 ft 418 kts 333°
2026-05-01 14:57 56.19335 13.79866 36742 ft 418 kts 333°
2026-05-01 14:57 56.21953 13.77570 36451 ft 418 kts 333°
2026-05-01 14:58 56.24561 13.75279 35952 ft 415 kts 333°
2026-05-01 14:58 56.27146 13.73006 35459 ft 412 kts 332°
2026-05-01 14:58 56.29715 13.70741 34956 ft 410 kts 332°
2026-05-01 14:58 56.32269 13.68486 34460 ft 407 kts 332°
2026-05-01 14:59 56.34808 13.66245 33932 ft 405 kts 332°
2026-05-01 14:59 56.37296 13.64048 33450 ft 402 kts 333°
2026-05-01 14:59 56.39792 13.61842 32965 ft 398 kts 332°
2026-05-01 14:59 56.42269 13.59645 32482 ft 395 kts 333°
2026-05-01 15:00 56.47157 13.55293 31531 ft 389 kts 332°
2026-05-01 15:00 56.49574 13.53137 31069 ft 386 kts 332°
2026-05-01 15:00 56.51970 13.50997 30623 ft 383 kts 332°
2026-05-01 15:01 56.54353 13.48863 30126 ft 381 kts 332°
2026-05-01 15:01 56.56715 13.46748 29673 ft 377 kts 332°
2026-05-01 15:01 56.59031 13.44690 29034 ft 378 kts 332°
2026-05-01 15:01 56.61438 13.42653 28371 ft 381 kts 334°
2026-05-01 15:02 56.63843 13.40694 27971 ft 377 kts 334°
2026-05-01 15:02 56.64654 13.40042 27815 ft 376 kts 334°
2026-05-01 15:02 56.68605 13.36873 27145 ft 371 kts 334°
2026-05-01 15:02 56.70955 13.34974 26730 ft 368 kts 334°
2026-05-01 15:03 56.73282 13.33078 26319 ft 365 kts 333°
2026-05-01 15:03 56.75583 13.31189 25909 ft 362 kts 333°
2026-05-01 15:03 56.77868 13.29305 25484 ft 359 kts 333°
2026-05-01 15:03 56.80106 13.27453 25049 ft 356 kts 333°
2026-05-01 15:04 56.82354 13.25589 24622 ft 354 kts 333°
2026-05-01 15:04 56.84588 13.23733 24184 ft 352 kts 333°
2026-05-01 15:04 56.86810 13.21890 23725 ft 350 kts 333°
2026-05-01 15:04 56.89024 13.20051 23257 ft 347 kts 333°
2026-05-01 15:05 56.91213 13.18231 22811 ft 344 kts 333°
2026-05-01 15:05 56.93385 13.16425 22384 ft 341 kts 333°
2026-05-01 15:05 56.95540 13.14631 21959 ft 339 kts 333°
2026-05-01 15:05 56.97679 13.12850 21542 ft 337 kts 332°
2026-05-01 15:06 56.99775 13.11102 21125 ft 335 kts 332°
2026-05-01 15:06 57.01887 13.09340 20711 ft 333 kts 332°
2026-05-01 15:06 57.03990 13.07582 20298 ft 331 kts 332°
2026-05-01 15:06 57.06078 13.05830 19901 ft 330 kts 332°
2026-05-01 15:07 57.08158 13.04082 19495 ft 328 kts 332°
2026-05-01 15:07 57.10236 13.02335 19093 ft 328 kts 332°
2026-05-01 15:07 57.12305 13.00597 18693 ft 327 kts 332°
2026-05-01 15:07 57.14371 12.98861 18257 ft 326 kts 332°
2026-05-01 15:08 57.16427 12.97125 17850 ft 324 kts 332°
2026-05-01 15:08 57.18445 12.95419 17467 ft 322 kts 331°
2026-05-01 15:08 57.20475 12.93704 17086 ft 320 kts 331°
2026-05-01 15:08 57.22498 12.91995 16702 ft 319 kts 331°
2026-05-01 15:09 57.24505 12.90294 16324 ft 317 kts 331°
2026-05-01 15:09 57.26505 12.88589 15956 ft 316 kts 331°
2026-05-01 15:09 57.28500 12.86894 15550 ft 316 kts 332°
2026-05-01 15:09 57.29884 12.85975 15209 ft 321 kts 338°
2026-05-01 15:10 57.32016 12.84753 14813 ft 321 kts 338°
2026-05-01 15:10 57.36977 12.82066 13901 ft 318 kts 339°
2026-05-01 15:10 57.39098 12.80923 13497 ft 316 kts 339°
2026-05-01 15:11 57.41197 12.79783 13106 ft 313 kts 338°
2026-05-01 15:11 57.44652 12.77878 12482 ft 310 kts 338°
2026-05-01 15:11 57.46710 12.76735 12094 ft 308 kts 338°
2026-05-01 15:12 57.48748 12.75609 11840 ft 301 kts 338°
2026-05-01 15:12 57.53339 12.73077 11081 ft 294 kts 338°
2026-05-01 15:12 57.55292 12.71989 10727 ft 292 kts 338°
2026-05-01 15:13 57.60448 12.69335 10309 ft 286 kts 340°
2026-05-01 15:14 57.64314 12.67568 10304 ft 285 kts 339°
2026-05-01 15:14 57.66175 12.66373 10318 ft 283 kts 334°
2026-05-01 15:14 57.69880 12.63860 10093 ft 284 kts 334°
2026-05-01 15:15 57.73582 12.61337 9396 ft 277 kts 334°
2026-05-01 15:15 57.77063 12.58974 9008 ft 261 kts 334°
2026-05-01 15:16 57.80257 12.56074 8242 ft 250 kts 321°
2026-05-01 15:16 57.82955 12.52138 7101 ft 238 kts 296°
2026-05-01 15:17 57.83030 12.46622 6236 ft 217 kts 241°
2026-05-01 15:18 57.79948 12.40438 4487 ft 229 kts 211°
2026-05-01 15:18 57.78532 12.39154 3908 ft 222 kts 211°
2026-05-01 15:19 57.74663 12.35660 2998 ft 183 kts 212°
2026-05-01 15:19 57.72632 12.33823 3005 ft 143 kts 212°
2026-05-01 15:19 57.71769 12.33035 3010 ft 135 kts 213°
2026-05-01 15:20 57.70097 12.31140 3006 ft 150 kts 237°
2026-05-01 15:20 57.69889 12.29347 3007 ft 148 kts 282°
2026-05-01 15:20 57.70269 12.27560 3018 ft 149 kts 293°
2026-05-01 15:21 57.70751 12.25858 3015 ft 148 kts 295°
2026-05-01 15:21 57.71248 12.24176 3014 ft 148 kts 295°
2026-05-01 15:21 57.71755 12.22497 3015 ft 149 kts 296°
2026-05-01 15:21 57.72268 12.20810 3004 ft 149 kts 295°
2026-05-01 15:22 57.73504 12.17740 3000 ft 161 kts 329°
2026-05-01 15:22 57.74667 12.17691 3021 ft 180 kts 12°
2026-05-01 15:22 57.75805 12.18723 3014 ft 182 kts 23°
2026-05-01 15:23 57.76883 12.19935 3006 ft 180 kts 25°
2026-05-01 15:23 57.77942 12.21157 3006 ft 178 kts 25°
2026-05-01 15:23 57.79001 12.22385 3003 ft 179 kts 26°
2026-05-01 15:23 57.80052 12.23591 3000 ft 176 kts 26°
2026-05-01 15:24 57.81096 12.24779 3009 ft 175 kts 25°
2026-05-01 15:24 57.82140 12.25967 3015 ft 177 kts 25°
2026-05-01 15:24 57.83122 12.27344 2989 ft 185 kts 49°
2026-05-01 15:24 57.83532 12.29589 3006 ft 190 kts 92°
2026-05-01 15:25 57.83241 12.31931 3020 ft 188 kts 112°
2026-05-01 15:25 57.82770 12.34199 3004 ft 183 kts 115°
2026-05-01 15:25 57.82290 12.36383 2980 ft 180 kts 116°
2026-05-01 15:25 57.81572 12.38209 2985 ft 171 kts 152°
2026-05-01 15:26 57.80537 12.39199 3000 ft 160 kts 171°
2026-05-01 15:26 57.79485 12.39484 2992 ft 149 kts 191°
2026-05-01 15:26 57.78539 12.39153 2888 ft 134 kts 208°
2026-05-01 15:26 57.77718 12.38433 2740 ft 127 kts 215°
2026-05-01 15:27 57.76941 12.37722 2590 ft 125 kts 215°
2026-05-01 15:27 57.76165 12.37012 2437 ft 123 kts 214°
2026-05-01 15:27 57.75398 12.36308 2272 ft 124 kts 212°
2026-05-01 15:28 57.73836 12.34878 1944 ft 126 kts 213°
2026-05-01 15:28 57.73046 12.34155 1773 ft 127 kts 214°
2026-05-01 15:28 57.72256 12.33434 1598 ft 126 kts 212°
2026-05-01 15:29 57.70703 12.32027 1310 ft 117 kts 213°
2026-05-01 15:29 57.69969 12.31348 994 ft 122 kts 215°
2026-05-01 15:29 57.68331 12.29863 783 ft 131 kts 213°
2026-05-01 15:30 57.67061 12.28677 527 ft 120 kts 208°
2026-05-01 15:31 57.65754 12.27830 505 ft 7 kts 51°
2026-05-01 15:31 57.65831 12.27917 506 ft 7 kts 25°
2026-05-01 15:32 57.65949 12.28021 508 ft 12 kts 26°
2026-05-01 15:32 57.66096 12.28159 509 ft 12 kts 27°
2026-05-01 15:33 57.66349 12.28387 511 ft 16 kts 25°
2026-05-01 15:34 57.66683 12.28688 512 ft 20 kts 26°